Woodward, OK

9:53 AM CST on February 24, 2017 (GMT -0600)
West Woodward

Weather History for KWWR - March, 2013

Change the Weather History Date:

Wednesday, March 6, 2013

  Actual Average (KGAG) Record (KGAG)
Temperature  
Mean Temperature 40 °F -  
Max Temperature 50 °F 60 °F 85 °F (1974)
Min Temperature 30 °F 28 °F 4 °F (1982)
Degree Days  
Heating Degree Days 25    
Moisture  
Dew Point 24 °F    
Average Humidity 56    
Maximum Humidity 75    
Minimum Humidity 37    
Precipitation  
Precipitation 0.00 in - - ()
Sea Level Pressure  
Sea Level Pressure 30.26 in    
Wind  
Wind Speed 11 mph (SE)    
Max Wind Speed 21 mph    
Max Gust Speed 25 mph    
Visibility 10 miles    
Events      
Averages and records for this station are not official NWS values.
T = Trace of Precipitation, MM = Missing Value Source: NWS Daily Summary

Daily Weather History Graph

Daily Weather History Graph

Search for Another Location

Airport or City:

Trip Planner

Search our weather history database for the weather conditions in past years. The results will help you decide how hot, cold, wet, or windy it might be!

Date:

Astronomy

Mar. 06, 2013 Rise Set
Actual Time 7:01 AM CST 6:37 PM CST
Civil Twilight 6:35 AM CST 7:03 PM CST
Nautical Twilight 6:05 AM CST 7:33 PM CST
Astronomical Twilight 5:35 AM CST 8:03 PM CST
Moon 3:04 AM CST (3/6) 1:28 PM CST (3/6)
Length of Visible Light 12h 27m
Length of Day
11h 36m
Waning Crescent, 29% of the Moon is Illuminated
Mar 6
Waning Crescent
Mar 11
New
Mar 19
First Quarter
Mar 27
Full
Apr 2
Last Quarter

Hourly Weather History & Observations

Time (CST) Temp. Windchill Dew Point Humidity Pressure Visibility Wind Dir Wind Speed Gust Speed Precip Events Conditions
12:15 AM 32.0 °F 25.6 °F 21.2 °F 64% 30.39 in 10.0 mi SE 6.9 mph - N/A   Clear
12:35 AM 32.0 °F 24.8 °F 23.0 °F 69% 30.37 in 10.0 mi ESE 8.1 mph - N/A   Clear
12:55 AM 32.0 °F 24.8 °F 21.2 °F 64% 30.37 in 10.0 mi ESE 8.1 mph - N/A   Clear
1:15 AM 32.0 °F 26.4 °F 21.2 °F 64% 30.37 in 10.0 mi ESE 5.8 mph - N/A   Clear
1:35 AM 32.0 °F 26.4 °F 21.2 °F 64% 30.37 in 10.0 mi East 5.8 mph - N/A   Clear
1:55 AM 32.0 °F 24.8 °F 21.2 °F 64% 30.37 in 10.0 mi SE 8.1 mph - N/A   Clear
2:15 AM 32.0 °F 24.8 °F 23.0 °F 69% 30.37 in 10.0 mi SE 8.1 mph - N/A   Clear
2:35 AM 32.0 °F 24.8 °F 23.0 °F 69% 30.37 in 10.0 mi SE 8.1 mph - N/A   Clear
2:55 AM 32.0 °F 24.8 °F 23.0 °F 69% 30.36 in 10.0 mi ESE 8.1 mph - N/A   Clear
3:15 AM 32.0 °F 24.2 °F 23.0 °F 69% 30.36 in 10.0 mi ESE 9.2 mph - N/A   Clear
3:35 AM 32.0 °F 24.2 °F 23.0 °F 69% 30.35 in 10.0 mi ESE 9.2 mph - N/A   Clear
3:55 AM 32.0 °F 23.6 °F 23.0 °F 69% 30.35 in 10.0 mi ESE 10.4 mph - N/A   Clear
4:15 AM 32.0 °F 24.2 °F 23.0 °F 69% 30.35 in 10.0 mi ESE 9.2 mph - N/A   Clear
4:35 AM 32.0 °F 24.2 °F 23.0 °F 69% 30.35 in 10.0 mi ESE 9.2 mph - N/A   Clear
4:55 AM 32.0 °F 24.2 °F 23.0 °F 69% 30.35 in 10.0 mi ESE 9.2 mph - N/A   Clear
5:15 AM 32.0 °F 23.6 °F 23.0 °F 69% 30.36 in 10.0 mi SE 10.4 mph - N/A   Clear
5:35 AM 32.0 °F 23.6 °F 23.0 °F 69% 30.36 in 10.0 mi ESE 10.4 mph - N/A   Clear
5:55 AM 32.0 °F 23.0 °F 21.2 °F 64% 30.36 in 10.0 mi ESE 11.5 mph - N/A   Clear
6:15 AM 32.0 °F 23.6 °F 21.2 °F 64% 30.36 in 10.0 mi SE 10.4 mph - N/A   Clear
6:35 AM 30.2 °F 23.4 °F 21.2 °F 69% 30.37 in 10.0 mi SSE 6.9 mph - N/A   Clear
6:55 AM 30.2 °F 23.4 °F 21.2 °F 69% 30.37 in 10.0 mi SE 6.9 mph - N/A   Clear
7:15 AM 30.2 °F 24.3 °F 21.2 °F 69% 30.37 in 10.0 mi SE 5.8 mph - N/A   Clear
7:35 AM 30.2 °F 23.4 °F 23.0 °F 75% 30.37 in 10.0 mi SE 6.9 mph - N/A   Clear
7:55 AM 32.0 °F 23.6 °F 23.0 °F 69% 30.37 in 10.0 mi SE 10.4 mph - N/A   Clear
8:15 AM 33.8 °F 24.8 °F 23.0 °F 65% 30.37 in 10.0 mi SE 12.7 mph - N/A   Clear
8:35 AM 33.8 °F 23.9 °F 23.0 °F 65% 30.37 in 10.0 mi SE 15.0 mph - N/A   Clear
8:55 AM 35.6 °F 26.2 °F 23.0 °F 60% 30.38 in 10.0 mi SE 15.0 mph - N/A   Clear
9:15 AM 35.6 °F 25.9 °F 23.0 °F 60% 30.38 in 10.0 mi SE 16.1 mph - N/A   Clear
9:35 AM 37.4 °F 28.2 °F 23.0 °F 56% 30.37 in 10.0 mi SE 16.1 mph - N/A   Clear
9:55 AM 37.4 °F 28.2 °F 21.2 °F 52% 30.37 in 10.0 mi SE 16.1 mph - N/A   Clear
10:15 AM 37.4 °F 28.9 °F 24.8 °F 60% 30.37 in 10.0 mi SE 13.8 mph - N/A   Clear
10:35 AM 39.2 °F 30.8 °F 23.0 °F 52% 30.37 in 10.0 mi SSE 15.0 mph - N/A   Clear
10:55 AM 41.0 °F 33.5 °F 24.8 °F 53% 30.36 in 10.0 mi SSE 13.8 mph - N/A   Clear
11:15 AM 41.0 °F 33.1 °F 24.8 °F 53% 30.35 in 10.0 mi SE 15.0 mph - N/A   Clear
11:35 AM 41.0 °F 32.8 °F 26.6 °F 57% 30.34 in 10.0 mi SE 16.1 mph 23.0 mph N/A   Clear
11:55 AM 42.8 °F 35.1 °F 24.8 °F 49% 30.32 in 10.0 mi SE 16.1 mph 19.6 mph N/A   Clear
12:15 PM 41.0 °F 33.5 °F 24.8 °F 53% 30.32 in 10.0 mi SSE 13.8 mph 19.6 mph N/A   Clear
12:35 PM 44.6 °F 37.8 °F 26.6 °F 49% 30.31 in 10.0 mi SSE 15.0 mph 19.6 mph N/A   Clear
12:55 PM 46.4 °F 40.1 °F 26.6 °F 46% 30.29 in 10.0 mi SSE 15.0 mph - N/A   Clear
1:15 PM 46.4 °F 40.4 °F 26.6 °F 46% 30.27 in 10.0 mi SSE 13.8 mph 20.7 mph N/A   Clear
1:35 PM 50.0 °F - 26.6 °F 40% 30.25 in 10.0 mi South 17.3 mph - N/A   Clear
1:55 PM 50.0 °F - 24.8 °F 37% 30.25 in 10.0 mi South 16.1 mph 25.3 mph N/A   Clear
2:15 PM 50.0 °F - 26.6 °F 40% 30.23 in 10.0 mi South 18.4 mph 23.0 mph N/A   Clear
2:35 PM 50.0 °F - 26.6 °F 40% 30.22 in 10.0 mi South 18.4 mph 23.0 mph N/A   Clear
2:55 PM 50.0 °F - 26.6 °F 40% 30.21 in 10.0 mi SSE 17.3 mph 23.0 mph N/A   Clear
3:15 PM 50.0 °F - 26.6 °F 40% 30.19 in 10.0 mi SSE 19.6 mph - N/A   Scattered Clouds
3:35 PM 50.0 °F - 26.6 °F 40% 30.19 in 10.0 mi SSE 17.3 mph 24.2 mph N/A   Clear
3:55 PM 50.0 °F - 24.8 °F 37% 30.18 in 10.0 mi South 15.0 mph 18.4 mph N/A   Clear
4:15 PM 50.0 °F - 24.8 °F 37% 30.18 in 10.0 mi SSE 19.6 mph 23.0 mph N/A   Scattered Clouds
4:35 PM 48.2 °F - 26.6 °F 43% 30.17 in 10.0 mi SSE 20.7 mph - N/A   Scattered Clouds
4:55 PM 48.2 °F - 24.8 °F 40% 30.16 in 10.0 mi SSE 18.4 mph 24.2 mph N/A   Scattered Clouds
5:15 PM 48.2 °F - 24.8 °F 40% 30.15 in 10.0 mi SSE 17.3 mph - N/A   Clear
5:35 PM 46.4 °F 39.2 °F 24.8 °F 43% 30.14 in 10.0 mi SSE 18.4 mph 23.0 mph N/A   Scattered Clouds
5:55 PM 46.4 °F 39.0 °F 26.6 °F 46% 30.12 in 10.0 mi SSE 19.6 mph - N/A   Mostly Cloudy
6:15 PM 46.4 °F 39.2 °F 26.6 °F 46% 30.12 in 10.0 mi SSE 18.4 mph - N/A   Scattered Clouds
6:35 PM 44.6 °F 38.4 °F 26.6 °F 49% 30.13 in 10.0 mi SSE 12.7 mph - N/A   Clear
6:55 PM 44.6 °F 38.4 °F 26.6 °F 49% 30.13 in 10.0 mi SSE 12.7 mph - N/A   Mostly Cloudy
7:15 PM 44.6 °F 38.1 °F 26.6 °F 49% 30.12 in 10.0 mi SSE 13.8 mph 19.6 mph N/A   Mostly Cloudy
7:35 PM 42.8 °F 35.4 °F 26.6 °F 53% 30.12 in 10.0 mi SSE 15.0 mph - N/A   Scattered Clouds
7:55 PM 42.8 °F 36.6 °F 26.6 °F 53% 30.12 in 10.0 mi SE 11.5 mph - N/A   Clear
8:35 PM 42.8 °F 36.6 °F 26.6 °F 53% 30.12 in 10.0 mi SSE 11.5 mph - N/A   Clear
8:55 PM 42.8 °F 36.2 °F 26.6 °F 53% 30.12 in 10.0 mi SSE 12.7 mph - N/A   Clear
9:15 PM 42.8 °F 36.2 °F 26.6 °F 53% 30.11 in 10.0 mi SE 12.7 mph 19.6 mph N/A   Clear
9:35 PM 42.8 °F 36.2 °F 26.6 °F 53% 30.11 in 10.0 mi SSE 12.7 mph - N/A   Clear
9:55 PM 41.0 °F 33.9 °F 26.6 °F 57% 30.11 in 10.0 mi SE 12.7 mph - N/A   Clear
10:15 PM 41.0 °F 34.7 °F 26.6 °F 57% 30.11 in 10.0 mi SSE 10.4 mph - N/A   Clear
10:35 PM 41.0 °F 33.9 °F 26.6 °F 57% 30.10 in 10.0 mi SE 12.7 mph - N/A   Clear
10:55 PM 41.0 °F 33.1 °F 26.6 °F 57% 30.10 in 10.0 mi SE 15.0 mph - N/A   Clear
11:15 PM 41.0 °F 33.5 °F 26.6 °F 57% 30.09 in 10.0 mi SE 13.8 mph - N/A   Clear
11:35 PM 41.0 °F 33.1 °F 26.6 °F 57% 30.09 in 10.0 mi SE 15.0 mph 19.6 mph N/A   Clear
11:55 PM 41.0 °F 33.1 °F 24.8 °F 53% 30.08 in 10.0 mi SE 15.0 mph - N/A   Clear